This is the latest recevied weather packets stored in our database for station/object ZL3GL-4. If no packets are shown the sender has not sent any weather packets the latest 10 day(s).
| Time | Temp. | Humidity | Pressure | Rain* | Wind** | Luminosity | Snow |
|---|---|---|---|---|---|---|---|
| 1777791572 | 10° C | 95% | 1033 hPa | 0 mm | 1.34 m/s, 255° | - | - |
| 1777790725 | 10° C | 93% | 1033 hPa | 0 mm | 1.34 m/s, 263° | - | - |
| 1777789881 | 10.56° C | 92% | 1033.1 hPa | 0 mm | 1.34 m/s, 245° | - | - |
| 1777789037 | 10.56° C | 89% | 1033.2 hPa | 0 mm | 1.34 m/s, 256° | - | - |
| 1777788194 | 11.11° C | 84% | 1033.2 hPa | 0 mm | 0.45 m/s, 218° | - | - |
| 1777787353 | 11.67° C | 80% | 1033.2 hPa | 0 mm | 1.34 m/s, 208° | - | - |
| 1777786506 | 12.22° C | 78% | 1033.2 hPa | 0 mm | 0.89 m/s, 188° | - | - |
| 1777785663 | 12.22° C | 76% | 1033.3 hPa | 0 mm | 0.89 m/s, 193° | - | - |
| 1777784819 | 12.78° C | 75% | 1033.2 hPa | 0 mm | 0.89 m/s, 190° | - | - |
| 1777783974 | 12.78° C | 73% | 1033.2 hPa | 0 mm | 1.34 m/s, 232° | - | - |
| 1777783136 | 13.33° C | 73% | 1033.2 hPa | 0 mm | 1.34 m/s, 183° | - | - |
| 1777782287 | 13.33° C | 72% | 1033.1 hPa | 0 mm | 1.79 m/s, 190° | - | - |
| 1777781444 | 13.89° C | 71% | 1033 hPa | 0 mm | 2.24 m/s, 193° | - | - |
| 1777780599 | 13.89° C | 68% | 1033 hPa | 0 mm | 2.24 m/s, 156° | - | - |
| 1777779754 | 13.89° C | 69% | 1032.8 hPa | 0 mm | 1.79 m/s, 180° | - | - |
| 1777778910 | 14.44° C | 66% | 1032.7 hPa | 0 mm | 2.68 m/s, 128° | - | - |
| 1777778067 | 14.44° C | 65% | 1032.5 hPa | 0 mm | 3.13 m/s, 156° | - | - |
| 1777777222 | 14.44° C | 65% | 1032.3 hPa | 0 mm | 2.24 m/s, 201° | - | - |
| 1777776379 | 15° C | 66% | 1032.1 hPa | 0 mm | 2.68 m/s, 180° | - | - |
| 1777775534 | 15° C | 69% | 1032 hPa | 0 mm | 2.68 m/s, 186° | - | - |
| 1777774692 | 15° C | 66% | 1031.9 hPa | 0 mm | 2.24 m/s, 169° | - | - |
| 1777773847 | 15° C | 65% | 1031.9 hPa | 0 mm | 2.68 m/s, 153° | - | - |
| 1777772160 | 15° C | 68% | 1031.8 hPa | 0 mm | 2.68 m/s, 142° | - | - |
| 1777771314 | 15° C | 70% | 1031.8 hPa | 0 mm | 1.79 m/s, 152° | - | - |
| 1777770468 | 15° C | 69% | 1031.8 hPa | 0 mm | 1.79 m/s, 205° | - | - |
* Rain latest hour (hover to see other rain measurements)
** Current wind speed in m/s (hover to see current wind gust speed)